UAE855 OMDB-OKKK

Flight info

Callsign UAE855
Flight time N/A
Altitude 30000
Route RIDAP DCT TUMAK DCT KUMBO/N0414F240 A453 DEBTI
Aircraft B77W/H-SDE1E2E3FGHIJ2J3J4J5M1RWXY/LB1D1

Departure

Time 2026-05-04 14:57
Airport Dubai International Airport (OMDB)

Arrival

Time N/A
Airport Kuwait International Airport (OKKK)
Time Latitude Longitude Altitude Speed Heading
2026-05-04 14:17 25.24309 55.37443 26 ft 0 kts 211°
2026-05-04 14:43 25.24317 55.37448 26 ft 3 kts 211°
2026-05-04 14:43 25.24334 55.37459 32 ft 3 kts 211°
2026-05-04 14:44 25.24352 55.37471 32 ft 3 kts 211°
2026-05-04 14:44 25.24365 55.37480 24 ft 2 kts 209°
2026-05-04 14:44 25.24381 55.37487 24 ft 3 kts 170°
2026-05-04 14:44 25.24397 55.37478 24 ft 3 kts 130°
2026-05-04 14:45 25.24409 55.37460 25 ft 3 kts 121°
2026-05-04 14:45 25.24414 55.37451 24 ft 1 kts 122°
2026-05-04 14:45 25.24415 55.37449 24 ft 0 kts 122°
2026-05-04 14:49 25.24407 55.37464 26 ft 11 kts 120°
2026-05-04 14:49 25.24366 55.37539 26 ft 11 kts 121°
2026-05-04 14:50 25.24320 55.37622 26 ft 20 kts 123°
2026-05-04 14:50 25.24266 55.37719 27 ft 11 kts 111°
2026-05-04 14:50 25.24311 55.37803 27 ft 18 kts 35°
2026-05-04 14:50 25.24348 55.37829 29 ft 0 kts 33°
2026-05-04 14:51 25.24379 55.37851 30 ft 17 kts 32°
2026-05-04 14:52 25.24499 55.37942 35 ft 21 kts 37°
2026-05-04 14:52 25.24622 55.38034 30 ft 18 kts 32°
2026-05-04 14:52 25.24640 55.38046 30 ft 0 kts 32°
2026-05-04 14:55 25.24721 55.38101 34 ft 17 kts 31°
2026-05-04 14:55 25.24760 55.38102 35 ft 0 kts 324°
2026-05-04 14:55 25.24762 55.38101 35 ft 0 kts 321°
2026-05-04 14:56 25.24788 55.38066 35 ft 10 kts 301°
2026-05-04 14:56 25.24793 55.38057 35 ft 0 kts 301°
2026-05-04 14:56 25.24793 55.38055 35 ft 0 kts 300°
2026-05-04 14:57 25.24801 55.38040 35 ft 6 kts 300°
2026-05-04 14:57 25.24922 55.37810 35 ft 84 kts 301°
2026-05-04 14:57 25.25422 55.36909 69 ft 186 kts 300°
2026-05-04 14:57 25.26126 55.35695 1340 ft 185 kts 300°
2026-05-04 14:58 25.26789 55.34477 2295 ft 189 kts 301°
2026-05-04 14:58 25.27475 55.33221 2928 ft 196 kts 302°
2026-05-04 14:58 25.28231 55.31851 3132 ft 224 kts 302°
2026-05-04 14:58 25.29082 55.30316 3411 ft 244 kts 301°
2026-05-04 14:59 25.29661 55.28497 3855 ft 265 kts 284°
2026-05-04 14:59 25.29970 55.26366 4132 ft 296 kts 279°
2026-05-04 14:59 25.30516 55.21707 5751 ft 312 kts 279°
2026-05-04 15:00 25.30816 55.19319 6655 ft 316 kts 280°
2026-05-04 15:00 25.31133 55.16917 7612 ft 317 kts 281°
2026-05-04 15:00 25.31463 55.14506 8611 ft 318 kts 281°
2026-05-04 15:01 25.32149 55.09641 10379 ft 325 kts 281°
2026-05-04 15:01 25.32504 55.07154 11172 ft 330 kts 281°
2026-05-04 15:01 25.32864 55.04636 11982 ft 334 kts 281°
2026-05-04 15:01 25.33230 55.02080 12807 ft 338 kts 281°
2026-05-04 15:02 25.33595 54.99531 13594 ft 343 kts 281°
2026-05-04 15:02 25.33972 54.96885 14359 ft 346 kts 281°
2026-05-04 15:02 25.34344 54.94283 14727 ft 348 kts 280°
2026-05-04 15:02 25.34730 54.91626 14798 ft 353 kts 282°
2026-05-04 15:03 25.35324 54.88990 15529 ft 353 kts 288°
2026-05-04 15:03 25.36075 54.86408 16472 ft 352 kts 289°
2026-05-04 15:03 25.36826 54.83830 17340 ft 354 kts 288°
2026-05-04 15:03 25.37580 54.81228 18182 ft 356 kts 288°
2026-05-04 15:04 25.38335 54.78606 18900 ft 360 kts 288°
2026-05-04 15:04 25.39094 54.75956 19613 ft 364 kts 287°
2026-05-04 15:04 25.39861 54.73270 20332 ft 368 kts 287°
2026-05-04 15:04 25.40636 54.70560 21051 ft 372 kts 287°
2026-05-04 15:05 25.41428 54.67821 21783 ft 375 kts 287°
2026-05-04 15:05 25.42227 54.65063 22503 ft 379 kts 287°
2026-05-04 15:05 25.43032 54.62276 23204 ft 383 kts 287°
2026-05-04 15:05 25.43849 54.59454 23817 ft 386 kts 287°
2026-05-04 15:06 25.44673 54.56625 24475 ft 387 kts 287°
2026-05-04 15:06 25.45504 54.53780 25144 ft 389 kts 287°
2026-05-04 15:06 25.46335 54.50932 25790 ft 390 kts 287°
2026-05-04 15:07 25.48014 54.45171 26980 ft 396 kts 286°
2026-05-04 15:07 25.48863 54.42256 27590 ft 399 kts 286°
2026-05-04 15:07 25.49714 54.39328 28200 ft 401 kts 286°
2026-05-04 15:07 25.50568 54.36388 28837 ft 402 kts 286°
2026-05-04 15:08 25.51424 54.33438 29449 ft 404 kts 286°
2026-05-04 15:08 25.52290 54.30450 29768 ft 411 kts 286°
2026-05-04 15:08 25.53165 54.27427 29747 ft 412 kts 286°
2026-05-04 15:09 25.54900 54.21435 29741 ft 406 kts 286°
2026-05-04 15:09 25.56622 54.15474 29740 ft 407 kts 286°
2026-05-04 15:10 25.59208 54.06502 29746 ft 408 kts 286°
2026-05-04 15:11 25.61783 53.97547 29745 ft 409 kts 285°
2026-05-04 15:11 25.63507 53.91536 29743 ft 409 kts 285°
2026-05-04 15:12 25.65228 53.85527 29732 ft 409 kts 285°
2026-05-04 15:12 25.66944 53.79524 29729 ft 408 kts 285°
2026-05-04 15:13 25.68654 53.73533 29733 ft 407 kts 285°
2026-05-04 15:13 25.70358 53.67554 29747 ft 406 kts 285°
2026-05-04 15:14 25.72058 53.61579 29743 ft 406 kts 285°
2026-05-04 15:14 25.73755 53.55602 29737 ft 406 kts 285°
2026-05-04 15:15 25.75450 53.49622 29760 ft 406 kts 285°
2026-05-04 15:15 25.77143 53.43639 29739 ft 407 kts 285°
2026-05-04 15:16 25.79679 53.34661 29741 ft 406 kts 285°
2026-05-04 15:17 25.82210 53.25680 29745 ft 406 kts 285°
2026-05-04 15:17 25.85311 53.16916 29739 ft 410 kts 295°
2026-05-04 15:18 25.88360 53.11548 29742 ft 412 kts 300°
2026-05-04 15:19 25.93143 53.03641 29743 ft 413 kts 300°
2026-05-04 15:19 25.97930 52.95674 29745 ft 414 kts 300°
2026-05-04 15:20 26.00599 52.91213 29743 ft 414 kts 300°
2026-05-04 15:20 26.03620 52.85783 29761 ft 411 kts 294°
2026-05-04 15:21 26.06205 52.80111 29752 ft 411 kts 293°
2026-05-04 15:22 26.09974 52.71601 29746 ft 410 kts 292°
2026-05-04 15:22 26.13741 52.63068 29746 ft 409 kts 292°
2026-05-04 15:23 26.16248 52.57387 29746 ft 409 kts 292°
2026-05-04 15:23 26.18741 52.51703 29738 ft 409 kts 290°
2026-05-04 15:24 26.20718 52.45564 29757 ft 435 kts 287°
2026-05-04 15:24 26.22884 52.39110 29751 ft 449 kts 288°
2026-05-04 15:25 26.25072 52.32599 29747 ft 449 kts 287°
2026-05-04 15:26 26.28302 52.22825 29747 ft 448 kts 287°
2026-05-04 15:26 26.31516 52.13027 29751 ft 449 kts 287°
2026-05-04 15:27 26.34709 52.03273 29748 ft 448 kts 287°
2026-05-04 15:28 26.37909 51.93477 29751 ft 448 kts 287°
2026-05-04 15:29 26.41105 51.83674 29753 ft 449 kts 287°
2026-05-04 15:30 26.48757 51.60839 29761 ft 448 kts 287°
2026-05-04 15:31 26.52013 51.51049 29761 ft 448 kts 287°